GW6650 Weather Reports


time (UTC)temp
C
wind
direction
speed
KPH
gust
KPH
rain 1hr
cm
rain 24hr
cm
rain mn
cm
humidity
%
barometer
mb
20260510150351 28 231 1.6 4.8 0.00 0.00 0.00 77 1016.9
20260510145847 28 300 3.2 4.8 0.00 0.00 0.00 78 1016.7
20260510145343 28 225 4.8 6.4 0.00 0.00 0.00 78 1017.0
20260510144840 27 324 0.0 6.4 0.00 0.00 0.00 78 1016.8
20260510144337 27 104 0.0 6.4 0.00 0.00 0.00 78 1017.0
20260510143836 27 267 3.2 6.4 0.00 0.00 0.00 79 1016.8
20260510143333 27 189 0.0 4.8 0.00 0.00 0.00 79 1016.8
20260510142830 27 290 1.6 6.4 0.00 0.00 0.00 80 1016.9
20260510142327 27 224 0.0 3.2 0.00 0.00 0.00 81 1016.8
20260510141823 27 240 3.2 6.4 0.00 0.00 0.00 81 1016.7
20260510141321 26 333 3.2 4.8 0.00 0.00 0.00 83 1016.7
20260510140819 26 261 6.4 6.4 0.00 0.00 0.00 84 1016.9
20260510140315 26 227 1.6 3.2 0.00 0.00 0.00 86 1016.7
20260510135813 26 311 4.8 6.4 0.00 0.00 0.00 88 1016.7
20260510135309 25 239 3.2 8.0 0.00 0.00 0.00 89 1016.6
20260510134807 25 265 4.8 4.8 0.00 0.00 0.00 91 1016.7
20260510134304 25 264 3.2 6.4 0.00 0.00 0.00 92 1016.5
20260510133800 25 251 3.2 8.0 0.00 0.00 0.00 93 1016.5
20260510133256 24 244 4.8 4.8 0.00 0.00 0.00 95 1016.6
20260510132751 24 356 3.2 3.2 0.00 0.00 0.00 96 1016.5
20260510132250 24 276 1.6 6.4 0.00 0.00 0.00 96 1016.5
20260510131746 23 8 3.2 6.4 0.00 0.00 0.00 97 1016.4
20260510131244 23 268 3.2 4.8 0.00 0.00 0.00 97 1016.4
20260510130740 23 207 3.2 3.2 0.00 0.00 0.00 97 1016.4
20260510130237 23 257 3.2 4.8 0.00 0.00 0.00 98 1016.1
20260510125734 23 254 1.6 1.6 0.00 0.00 0.00 98 1016.1
20260510125230 23 269 0.0 4.8 0.00 0.00 0.00 98 1016.1
20260510124726 23 235 1.6 4.8 0.00 0.00 0.00 98 1015.9
20260510124224 23 351 1.6 3.2 0.00 0.00 0.00 98 1015.9
20260510123719 22 269 0.0 3.2 0.00 0.00 0.00 98 1016.0
20260510123215 22 293 0.0 0.0 0.00 0.00 0.00 98 1016.0
20260510122712 22 117 0.0 0.0 0.00 0.00 0.00 98 1015.9
20260510122208 22 173 0.0 0.0 0.00 0.00 0.00 98 1015.8
20260510121704 22 246 0.0 0.0 0.00 0.00 0.00 98 1015.7
20260510121202 22 212 1.6 1.6 0.00 0.00 0.00 98 1015.5
20260510120659 22 22 0.0 0.0 0.00 0.00 0.00 98 1015.6
20260510120155 22 26 0.0 1.6 0.00 0.00 0.00 98 1015.5
20260510115646 22 309 0.0 1.6 0.00 0.00 0.00 98 1015.7
20260510115144 22 0 1.6 3.2 0.00 0.00 0.00 98 1015.4
20260510114640 21 22 0.0 0.0 0.00 0.00 0.00 99 1015.3
20260510114137 21 336 0.0 1.6 0.00 0.00 0.00 98 1015.1
20260510113631 21 66 0.0 0.0 0.00 0.00 0.00 98 1015.2
20260510113129 21 129 0.0 3.2 0.00 0.00 0.00 98 1015.0
20260510112625 21 224 0.0 1.6 0.00 0.00 0.00 98 1015.1
20260510112122 21 205 3.2 3.2 0.00 0.00 0.00 98 1014.9
20260510111618 21 233 0.0 3.2 0.00 0.00 0.00 98 1014.9
20260510111114 21 151 1.6 1.6 0.00 0.00 0.00 98 1015.0
20260510110610 21 302 0.0 1.6 0.00 0.00 0.00 98 1014.8
20260510110107 21 218 0.0 1.6 0.00 0.00 0.00 98 1015.1
20260510105602 21 117 0.0 1.6 0.00 0.00 0.00 98 1014.9
20260510105058 21 119 0.0 0.0 0.00 0.00 0.00 98 1014.8
20260510104554 21 131 1.6 1.6 0.00 0.00 0.00 98 1014.5
20260510104051 21 53 3.2 3.2 0.00 0.00 0.00 98 1014.4
20260510103548 21 98 0.0 3.2 0.00 0.00 0.00 98 1014.6
20260510103044 21 264 0.0 1.6 0.00 0.00 0.00 98 1014.6
20260510102539 21 309 0.0 1.6 0.00 0.00 0.00 98 1014.5
20260510102036 21 40 0.0 3.2 0.00 0.00 0.00 98 1014.4
20260510101534 21 326 0.0 1.6 0.00 0.00 0.00 98 1014.3
20260510101032 21 311 0.0 1.6 0.00 0.00 0.00 98 1014.3
20260510100528 21 103 0.0 0.0 0.00 0.00 0.00 98 1014.3
20260510100025 21 103 0.0 0.0 0.00 0.00 0.00 98 1014.4
20260510095521 21 103 0.0 0.0 0.00 0.00 0.00 98 1014.2
20260510095020 21 103 0.0 0.0 0.00 0.00 0.00 98 1014.1
20260510094515 21 27 0.0 3.2 0.00 0.00 0.00 98 1014.1
20260510094011 21 41 1.6 3.2 0.00 0.00 0.00 98 1014.1
20260510093507 21 6 0.0 0.0 0.00 0.00 0.00 98 1014.0
20260510093004 21 345 0.0 0.0 0.00 0.00 0.00 98 1014.2
20260510092501 21 322 0.0 0.0 0.00 0.00 0.00 98 1014.2
20260510092000 21 250 0.0 1.6 0.00 0.00 0.00 98 1014.0
20260510091457 21 124 0.0 0.0 0.00 0.00 0.00 98 1013.7
20260510090953 21 117 0.0 0.0 0.00 0.00 0.00 98 1013.4
20260510090450 21 135 0.0 1.6 0.00 0.00 0.00 98 1013.6
20260510085945 21 89 0.0 0.0 0.00 0.00 0.00 98 1013.8
20260510085441 21 309 0.0 0.0 0.00 0.00 0.00 98 1013.6
20260510084937 21 34 0.0 0.0 0.00 0.00 0.00 98 1013.5
20260510084434 21 269 0.0 0.0 0.00 0.00 0.00 98 1013.5
20260510083931 21 326 0.0 0.0 0.00 0.00 0.00 98 1013.5
20260510083428 21 326 0.0 0.0 0.00 0.00 0.00 98 1013.5
20260510082922 21 0 0.0 1.6 0.00 0.00 0.00 98 1013.4
20260510082421 21 14 0.0 0.0 0.00 0.00 0.00 98 1013.4
20260510081919 21 15 0.0 0.0 0.00 0.00 0.00 98 1013.3
20260510081416 21 282 1.6 1.6 0.00 0.00 0.00 98 1013.5
20260510080913 21 293 0.0 0.0 0.00 0.00 0.00 98 1013.3
20260510080411 21 304 0.0 0.0 0.00 0.00 0.00 98 1013.1
20260510075909 21 304 0.0 1.6 0.00 0.00 0.00 98 1013.3
20260510075406 21 230 0.0 0.0 0.00 0.00 0.00 98 1013.2
20260510074903 21 297 0.0 1.6 0.00 0.00 0.00 98 1013.2
20260510074400 21 166 0.0 1.6 0.00 0.00 0.00 98 1012.9
20260510073856 21 117 0.0 0.0 0.00 0.00 0.00 98 1012.9
20260510073352 21 156 0.0 0.0 0.00 0.00 0.00 98 1012.7
20260510072848 21 157 0.0 0.0 0.00 0.00 0.00 98 1013.1
20260510072345 21 135 0.0 1.6 0.00 0.00 0.00 98 1012.9
20260510071841 21 164 0.0 0.0 0.00 0.00 0.00 98 1013.0
20260510071338 21 50 0.0 0.0 0.00 0.00 0.00 97 1012.9
20260510070837 21 135 0.0 0.0 0.00 0.00 0.00 98 1012.8
20260510070333 21 63 0.0 0.0 0.00 0.00 0.00 97 1012.8
20260510065833 21 77 0.0 0.0 0.00 0.00 0.00 97 1013.0
20260510065330 21 168 0.0 0.0 0.00 0.00 0.00 97 1013.0
20260510064826 21 235 0.0 0.0 0.00 0.00 0.00 97 1013.0
20260510064325 21 230 0.0 1.6 0.00 0.00 0.00 97 1013.1
20260510063821 21 89 0.0 0.0 0.00 0.00 0.00 97 1013.2
20260510063317 21 297 0.0 1.6 0.00 0.00 0.00 97 1013.3
20260510062814 21 150 0.0 1.6 0.00 0.00 0.00 97 1013.5
20260510062309 21 60 0.0 3.2 0.00 0.00 0.00 97 1013.5
20260510061805 21 195 0.0 1.6 0.00 0.00 0.00 97 1013.6
20260510061302 21 117 0.0 0.0 0.00 0.00 0.00 97 1013.5
20260510060758 21 142 0.0 0.0 0.00 0.00 0.00 97 1013.9
20260510060255 21 135 0.0 0.0 0.00 0.00 0.00 97 1013.9
20260510055752 21 107 0.0 0.0 0.00 0.00 0.00 97 1013.9
20260510055250 21 107 0.0 3.2 0.00 0.00 0.00 97 1014.0
20260510054749 21 54 0.0 0.0 0.00 0.00 0.00 97 1014.0
20260510054246 21 290 0.0 1.6 0.00 0.00 0.00 97 1014.2
20260510053745 21 32 0.0 3.2 0.00 0.00 0.00 97 1014.2
20260510053242 21 55 0.0 0.0 0.00 0.00 0.00 97 1014.3
20260510052738 21 89 0.0 1.6 0.00 0.00 0.00 97 1014.4
20260510052234 21 50 0.0 0.0 0.00 0.00 0.00 97 1014.3
20260510051730 21 72 0.0 0.0 0.00 0.00 0.00 97 1014.6
20260510051226 21 72 0.0 0.0 0.00 0.00 0.00 97 1014.4
20260510050723 22 72 0.0 0.0 0.00 0.00 0.00 97 1014.7
20260510050221 22 72 0.0 0.0 0.00 0.00 0.00 97 1014.7
20260510045717 22 224 0.0 0.0 0.00 0.00 0.00 97 1014.7
20260510045214 22 224 0.0 0.0 0.00 0.00 0.00 97 1014.9
20260510044710 22 142 0.0 0.0 0.00 0.00 0.00 97 1014.9
20260510044209 22 212 0.0 3.2 0.00 0.00 0.00 97 1014.9
20260510043703 22 333 0.0 0.0 0.00 0.00 0.00 97 1014.9
20260510043200 22 164 0.0 1.6 0.00 0.00 0.00 97 1014.9
20260510042657 21 243 0.0 0.0 0.00 0.00 0.00 97 1015.0
20260510042154 21 220 1.6 3.2 0.00 0.00 0.00 97 1015.1
20260510041651 21 309 0.0 0.0 0.00 0.00 0.00 97 1014.9
20260510041148 21 242 0.0 0.0 0.00 0.00 0.00 97 1015.0
20260510040645 21 164 0.0 0.0 0.00 0.00 0.00 97 1014.8
20260510040142 21 129 0.0 1.6 0.00 0.00 0.00 97 1014.8
20260510035637 21 322 0.0 0.0 0.00 0.69 0.69 97 1014.7
20260510035132 21 322 0.0 0.0 0.00 0.69 0.69 97 1015.0
20260510034630 21 322 0.0 0.0 0.00 0.69 0.69 96 1015.0
20260510034127 21 290 0.0 0.0 0.00 0.69 0.69 97 1015.1
20260510033623 21 309 0.0 0.0 0.00 0.69 0.69 97 1015.0
20260510033121 21 143 1.6 1.6 0.00 0.69 0.69 97 1014.8
20260510032617 21 129 0.0 0.0 0.00 0.69 0.69 96 1014.8
20260510032112 21 309 0.0 0.0 0.00 0.69 0.69 96 1015.0
20260510031607 21 135 0.0 1.6 0.00 0.69 0.69 96 1015.0
20260510031104 21 230 0.0 0.0 0.00 0.69 0.69 96 1015.1
20260510030559 21 249 0.0 1.6 0.00 0.69 0.69 96 1015.0
20260510030057 21 256 0.0 0.0 0.00 0.69 0.69 96 1014.8
20260510025554 21 243 0.0 1.6 0.00 0.69 0.69 96 1015.2
20260510025052 21 186 0.0 1.6 0.00 0.69 0.69 96 1014.7
20260510024548 21 62 0.0 0.0 0.00 0.69 0.69 96 1014.7
20260510024044 21 202 0.0 0.0 0.00 0.69 0.69 96 1014.8
20260510023540 21 258 0.0 3.2 0.00 0.69 0.69 96 1014.7
20260510023039 21 197 0.0 3.2 0.00 0.69 0.69 96 1014.5
20260510022538 21 205 0.0 3.2 0.00 0.69 0.69 96 1014.4
20260510022037 22 89 0.0 1.6 0.00 0.69 0.69 96 1014.3
20260510021535 22 127 0.0 0.0 0.00 0.69 0.69 96 1014.5
20260510021032 22 224 0.0 0.0 0.00 0.69 0.69 96 1014.5
20260510020526 22 306 0.0 1.6 0.00 0.69 0.69 96 1014.4
20260510020022 22 154 0.0 3.2 0.00 0.69 0.69 96 1014.2
20260510015518 22 224 0.0 3.2 0.00 0.69 0.69 95 1014.1
20260510015014 22 76 0.0 3.2 0.00 0.69 0.69 95 1014.0
20260510014511 22 54 3.2 3.2 0.00 0.69 0.69 95 1013.7
20260510014008 22 89 1.6 1.6 0.00 0.69 0.69 95 1013.9
20260510013502 22 83 3.2 3.2 0.00 0.69 0.69 95 1013.8
20260510012958 22 89 0.0 0.0 0.00 0.69 0.69 95 1013.7
20260510012453 22 89 0.0 4.8 0.00 0.69 0.69 95 1013.6
20260510011948 22 269 0.0 0.0 0.00 0.69 0.69 95 1013.6
20260510011443 22 209 1.6 1.6 0.00 0.69 0.69 95 1014.0
20260510010939 22 63 4.8 4.8 0.00 0.69 0.69 95 1013.3
20260510010437 22 74 0.0 3.2 0.00 0.69 0.69 95 1013.5
20260510005933 22 52 3.2 4.8 0.00 0.69 0.69 95 1013.2
20260510005429 22 69 3.2 3.2 0.00 0.69 0.69 95 1013.2
20260510004927 22 69 4.8 6.4 0.00 0.69 0.69 95 1013.2
20260510004424 22 29 3.2 4.8 0.00 0.69 0.69 95 1013.3
20260510003922 22 31 4.8 4.8 0.00 0.69 0.69 95 1013.4
20260510003419 22 6 0.0 3.2 0.00 0.69 0.69 95 1013.7
20260510002918 22 343 0.0 3.2 0.00 0.69 0.69 94 1013.7
20260510002415 22 347 4.8 6.4 0.00 0.69 0.69 94 1013.8
20260510001911 22 14 1.6 4.8 0.00 0.69 0.69 94 1013.6
20260510001409 22 345 3.2 3.2 0.00 0.69 0.69 94 1013.6
20260510000906 22 333 0.0 4.8 0.00 0.69 0.69 94 1013.6
20260510000403 22 5 3.2 3.2 0.00 0.69 0.69 94 1013.6
20260509235859 22 12 4.8 4.8 0.00 0.69 0.69 94 1013.5
20260509235356 23 0 6.4 6.4 0.00 0.69 0.69 94 1013.3
20260509234852 23 345 3.2 6.4 0.00 0.69 0.69 94 1013.4
20260509234349 23 6 4.8 4.8 0.00 0.69 0.69 94 1013.4
20260509233847 23 8 1.6 6.4 0.00 0.69 0.69 94 1013.3
20260509233345 23 336 1.6 4.8 0.00 0.69 0.69 94 1013.4
20260509232840 23 322 1.6 4.8 0.00 0.69 0.69 94 1013.3
20260509232338 23 283 0.0 3.2 0.00 0.69 0.69 94 1013.3
20260509231834 23 329 3.2 4.8 0.00 0.69 0.69 93 1013.3
20260509231331 23 283 0.0 3.2 0.00 0.69 0.69 93 1013.3
20260509230829 23 340 0.0 4.8 0.00 0.69 0.69 93 1013.3
20260509230326 23 314 1.6 3.2 0.00 0.69 0.69 93 1013.1
20260509225820 23 329 3.2 4.8 0.00 0.69 0.69 93 1013.1
20260509225318 23 358 3.2 4.8 0.00 0.69 0.69 93 1013.1
20260509224814 23 350 3.2 6.4 0.00 0.69 0.69 93 1013.1
20260509224310 23 343 6.4 6.4 0.00 0.69 0.69 93 1013.2
20260509223807 23 331 1.6 6.4 0.00 0.69 0.69 93 1013.1
20260509223304 23 346 3.2 6.4 0.00 0.69 0.69 93 1013.1
20260509222800 23 4 4.8 4.8 0.00 0.69 0.69 93 1013.2
20260509222256 23 327 0.0 3.2 0.00 0.69 0.69 94 1013.3
20260509221752 23 309 0.0 3.2 0.00 0.69 0.69 94 1013.3
20260509221249 23 295 1.6 3.2 0.00 0.69 0.69 94 1013.1
20260509220744 23 346 3.2 3.2 0.00 0.69 0.69 94 1013.1
20260509220241 23 333 0.0 4.8 0.00 0.69 0.69 94 1013.0
20260509215736 23 10 3.2 6.4 0.00 0.69 0.69 95 1013.1
20260509215233 23 359 3.2 6.4 0.00 0.69 0.69 95 1012.9
20260509214730 23 333 3.2 4.8 0.00 0.69 0.69 94 1012.8
20260509214227 23 16 3.2 4.8 0.00 0.69 0.69 94 1012.8
20260509213724 23 11 3.2 3.2 0.00 0.69 0.69 94 1012.8
20260509213220 23 26 6.4 8.0 0.00 0.69 0.69 95 1012.6
20260509212718 23 27 6.4 6.4 0.05 0.69 0.69 94 1012.8
20260509212214 23 50 6.4 6.4 0.05 0.69 0.69 94 1012.8
20260509211710 23 25 1.6 3.2 0.00 0.66 0.66 94 1012.9
20260509211207 23 45 1.6 3.2 0.00 0.66 0.66 94 1012.9
20260509210704 23 12 0.0 3.2 0.00 0.66 0.66 94 1012.9
20260509210201 23 50 0.0 1.6 0.00 0.66 0.66 94 1012.9
20260509205701 23 25 0.0 1.6 0.00 0.66 0.66 94 1012.9
20260509205200 23 229 0.0 3.2 0.00 0.66 0.66 94 1013.0
20260509204657 23 68 3.2 8.0 0.00 0.66 0.66 93 1012.8
20260509204153 23 108 0.0 3.2 0.00 0.66 0.66 93 1013.0
20260509203649 23 265 3.2 4.8 0.30 0.66 0.66 93 1013.2
20260509203148 23 157 0.0 1.6 1.63 0.66 0.66 92 1012.9
20260509202643 24 165 3.2 3.2 3.00 0.61 0.61 91 1012.8
20260509202139 24 285 1.6 9.7 1.75 0.41 0.41 91 1012.9
20260509201634 24 317 0.0 1.6 0.13 0.13 0.13 90 1012.8
20260509201132 25 168 1.6 6.4 0.05 0.10 0.10 89 1012.6
20260509200627 25 130 0.0 6.4 0.13 0.10 0.10 88 1012.6
20260509200122 25 102 0.0 3.2 0.23 0.10 0.10 88 1013.0
20260509195618 25 208 1.6 3.2 0.18 0.08 0.08 86 1013.0
20260509195113 26 248 0.0 3.2 0.13 0.05 0.05 84 1013.1
20260509194612 26 195 3.2 3.2 0.05 0.05 0.05 82 1012.9
20260509194111 26 240 0.0 3.2 0.00 0.05 0.05 80 1012.9
20260509193606 26 264 1.6 4.8 0.00 0.05 0.05 77 1012.8
20260509193102 26 306 3.2 4.8 0.00 0.05 0.05 77 1012.7
20260509192559 27 341 1.6 3.2 0.00 0.05 0.05 77 1012.4
20260509192054 27 282 0.0 3.2 0.00 0.05 0.05 78 1012.7
20260509191554 27 225 3.2 3.2 0.00 0.05 0.05 77 1012.6
20260509191050 27 229 1.6 3.2 0.00 0.05 0.05 77 1012.7
20260509190547 27 231 1.6 3.2 0.00 0.05 0.05 77 1012.5
20260509190045 27 248 1.6 3.2 0.00 0.05 0.05 78 1012.6
20260509185543 26 198 1.6 3.2 0.00 0.05 0.05 78 1012.7
20260509185039 26 214 0.0 3.2 0.00 0.05 0.05 78 1012.7
20260509184537 26 249 1.6 3.2 0.00 0.05 0.05 78 1012.8
20260509184033 26 245 1.6 3.2 0.00 0.05 0.05 76 1012.8
20260509183528 27 221 0.0 4.8 0.00 0.05 0.05 76 1012.9
20260509183025 27 249 1.6 3.2 0.00 0.05 0.05 76 1013.0
20260509182521 27 76 0.0 3.2 0.00 0.05 0.05 76 1013.1
20260509182018 27 209 0.0 4.8 0.00 0.05 0.05 75 1013.2
20260509181517 27 308 1.6 3.2 0.00 0.05 0.05 74 1013.0
20260509181014 27 252 1.6 3.2 0.00 0.05 0.05 75 1013.2
20260509180508 27 253 1.6 3.2 0.00 0.05 0.05 74 1013.1
20260509180007 27 237 3.2 4.8 0.00 0.05 0.05 74 1013.3
20260509175502 27 238 1.6 3.2 0.00 0.05 0.05 73 1013.5
20260509174959 27 255 3.2 3.2 0.00 0.05 0.05 74 1013.4
20260509174455 27 214 1.6 6.4 0.00 0.05 0.05 74 1013.3
20260509173950 27 228 3.2 6.4 0.00 0.05 0.05 74 1013.5
20260509173450 27 212 3.2 6.4 0.00 0.05 0.05 74 1013.5
20260509172947 28 264 3.2 6.4 0.00 0.05 0.05 73 1013.4
20260509172445 27 326 0.0 4.8 0.00 0.05 0.05 75 1013.5
20260509171940 27 227 0.0 3.2 0.00 0.05 0.05 75 1013.2
20260509171436 27 151 3.2 3.2 0.00 0.05 0.05 75 1013.5
20260509170933 27 16 3.2 3.2 0.00 0.05 0.05 74 1013.4
20260509170428 27 217 3.2 4.8 0.00 0.05 0.05 76 1013.7
20260509165924 27 258 1.6 4.8 0.00 0.05 0.05 75 1013.6
20260509165418 27 315 0.0 6.4 0.00 0.05 0.05 75 1013.7
20260509164914 27 196 3.2 8.0 0.00 0.05 0.05 74 1013.5
20260509164410 28 273 6.4 6.4 0.00 0.05 0.05 73 1013.6
20260509163907 27 7 1.6 4.8 0.00 0.05 0.05 74 1013.6
20260509163404 27 277 1.6 3.2 0.00 0.05 0.05 75 1013.5
20260509162903 27 211 3.2 3.2 0.00 0.05 0.05 76 1013.5
20260509162401 27 217 0.0 3.2 0.00 0.05 0.05 77 1013.7
20260509161857 27 103 0.0 4.8 0.00 0.05 0.05 77 1013.6
20260509161354 27 235 0.0 3.2 0.00 0.05 0.05 77 1013.9
20260509160849 27 226 0.0 4.8 0.00 0.05 0.05 76 1013.7
20260509160345 27 203 0.0 3.2 0.00 0.05 0.05 77 1013.9
20260509155840 27 233 1.6 4.8 0.00 0.05 0.05 78 1014.0
20260509155337 27 232 3.2 8.0 0.00 0.05 0.05 78 1014.2
20260509154834 27 254 4.8 4.8 0.00 0.05 0.05 78 1013.9
20260509154330 27 211 4.8 6.4 0.00 0.05 0.05 77 1013.8
20260509153827 27 124 0.0 4.8 0.00 0.05 0.05 79 1013.8
20260509153324 27 251 1.6 8.0 0.00 0.05 0.05 78 1013.8
20260509152821 27 321 1.6 3.2 0.00 0.05 0.05 79 1013.8
20260509152317 27 281 3.2 4.8 0.00 0.05 0.05 77 1013.7
20260509151815 27 343 0.0 1.6 0.00 0.05 0.05 79 1013.7
20260509151310 26 272 0.0 3.2 0.00 0.05 0.05 80 1013.7
20260509150809 26 148 0.0 6.4 0.00 0.05 0.05 81 1013.8